Weather History for Washington, GA

Change the Weather History Date:

Monday, January 7, 2013

  Actual Average (KDBN) Record (KDBN)
Temperature  
Mean Temperature 44 °F -  
Max Temperature 55 °F 58 °F 80 °F (1946)
Min Temperature 32 °F 35 °F 14 °F (2014)
Degree Days  
Heating Degree Days 22    
Moisture  
Dew Point 31 °F    
Average Humidity 68    
Maximum Humidity 100    
Minimum Humidity 33    
Precipitation  
Precipitation 0.00 in - - ()
Sea Level Pressure  
Sea Level Pressure 30.32 in    
Wind  
Wind Speed 5 mph (ENE)    
Max Wind Speed 10 mph    
Max Gust Speed 18 mph    
Visibility 10 miles    
Events      
Averages and records for this station are not official NWS values.
T = Trace of Precipitation, MM = Missing Value Source: NWS Daily Summary

Daily Weather History Graph

Daily Weather History Graph

Search for Another Location

Airport:

Trip Planner

Search our weather history database for the weather conditions in past years. The results will help you decide how hot, cold, wet, or windy it might be!

Date:

Astronomy

Jan. 07, 2013 Rise Set
Actual Time 7:36 AM EST 5:38 PM EST
Civil Twilight 7:09 AM EST 6:06 PM EST
Nautical Twilight 6:38 AM EST 6:37 PM EST
Astronomical Twilight 6:08 AM EST 7:07 PM EST
Moon 3:02 AM EST (1/7) 1:46 PM EST (1/7)
Length of Visible Light 10h 56m
Length of Day
10h 01m
Waning Crescent, 23% of the Moon is Illuminated
Jan 7
Waning Crescent
Jan 11
New
Jan 18
First Quarter
Jan 26
Full
Feb 3
Last Quarter

Hourly Weather History & Observations

Time (EST) Temp. Windchill Dew Point Humidity Pressure Visibility Wind Dir Wind Speed Gust Speed Precip Events Conditions
12:35 AM 41.0 °F 35.2 °F 32.0 °F 70% 30.23 in 10.0 mi NW 9.2 mph - N/A   Clear
12:55 AM 41.0 °F 35.8 °F 32.0 °F 70% 30.22 in 10.0 mi NW 8.1 mph - N/A   Clear
1:15 AM 41.0 °F 36.4 °F 32.0 °F 70% 30.23 in 10.0 mi NW 6.9 mph - N/A   Clear
1:35 AM 41.0 °F 36.4 °F 32.0 °F 70% 30.23 in 10.0 mi NW 6.9 mph - N/A   Clear
1:55 AM 41.0 °F 36.4 °F 32.0 °F 70% 30.22 in 10.0 mi NW 6.9 mph - N/A   Clear
2:15 AM 41.0 °F 38.0 °F 32.0 °F 70% 30.22 in 10.0 mi NW 4.6 mph - N/A   Clear
2:35 AM 37.4 °F 31.4 °F 32.0 °F 81% 30.23 in 10.0 mi WNW 8.1 mph - N/A   Clear
2:55 AM 39.2 °F 35.9 °F 32.0 °F 75% 30.23 in 10.0 mi WNW 4.6 mph - N/A   Clear
3:15 AM 37.4 °F - 32.0 °F 81% 30.24 in 10.0 mi Calm Calm - N/A   Clear
3:35 AM 35.6 °F - 32.0 °F 87% 30.25 in 10.0 mi Calm Calm - N/A   Clear
3:55 AM 35.6 °F - 33.8 °F 93% 30.26 in 10.0 mi Calm Calm - N/A   Clear
4:15 AM 33.8 °F - 32.0 °F 93% 30.26 in 10.0 mi Calm Calm - N/A   Clear
4:35 AM 33.8 °F - 32.0 °F 93% 30.26 in 10.0 mi Calm Calm - N/A   Clear
4:55 AM 35.6 °F 32.8 °F 33.8 °F 93% 30.26 in 10.0 mi NNE 3.5 mph - N/A   Clear
5:15 AM 33.8 °F 30.8 °F 33.8 °F 100% 30.28 in 10.0 mi NNW 3.5 mph - N/A   Clear
5:35 AM 35.6 °F - 33.8 °F 93% 30.28 in 10.0 mi Calm Calm - N/A   Clear
5:55 AM 33.8 °F - 33.8 °F 100% 30.28 in 10.0 mi Calm Calm - N/A   Clear
6:15 AM 33.8 °F - 32.0 °F 93% 30.29 in 10.0 mi Calm Calm - N/A   Clear
6:35 AM 33.8 °F - 32.0 °F 93% 30.30 in 10.0 mi Calm Calm - N/A   Clear
6:55 AM 33.8 °F - 32.0 °F 93% 30.31 in 10.0 mi Calm Calm - N/A   Clear
7:35 AM 32.0 °F 28.7 °F 32.0 °F 100% 30.31 in 7.0 mi NNE 3.5 mph - N/A   Clear
7:55 AM 33.8 °F 30.8 °F 33.8 °F 100% 30.32 in 7.0 mi NE 3.5 mph - N/A   Clear
8:15 AM 32.0 °F 28.7 °F 32.0 °F 100% 30.33 in 5.0 mi NE 3.5 mph - N/A   Clear
8:35 AM 32.0 °F 28.7 °F 32.0 °F 100% 30.34 in 7.0 mi NNE 3.5 mph - N/A   Clear
8:55 AM 35.6 °F 32.8 °F 35.6 °F 100% 30.34 in 10.0 mi NE 3.5 mph - N/A   Clear
9:15 AM 41.0 °F 38.0 °F 33.8 °F 76% 30.36 in 10.0 mi East 4.6 mph - N/A   Clear
9:35 AM 42.8 °F 40.1 °F 32.0 °F 66% 30.37 in 10.0 mi East 4.6 mph - N/A   Clear
9:55 AM 44.6 °F 42.2 °F 32.0 °F 61% 30.38 in 10.0 mi ENE 4.6 mph - N/A   Clear
10:15 AM 46.4 °F 42.4 °F 30.2 °F 53% 30.39 in 10.0 mi East 8.1 mph - N/A   Clear
10:35 AM 48.2 °F - 30.2 °F 50% 30.39 in 10.0 mi ENE 4.6 mph - N/A   Clear
10:55 AM 50.0 °F - 28.4 °F 43% 30.40 in 10.0 mi East 9.2 mph - N/A   Clear
11:15 AM 51.8 °F - 30.2 °F 44% 30.40 in 10.0 mi East 9.2 mph - N/A   Clear
11:35 AM 51.8 °F - 30.2 °F 44% 30.39 in 10.0 mi East 10.4 mph 18.4 mph N/A   Clear
11:55 AM 53.6 °F - 30.2 °F 41% 30.38 in 10.0 mi NE 8.1 mph - N/A   Clear
12:15 PM 53.6 °F - 28.4 °F 38% 30.36 in 10.0 mi East 8.1 mph 16.1 mph N/A   Clear
12:35 PM 53.6 °F - 28.4 °F 38% 30.35 in 10.0 mi East 5.8 mph - N/A   Clear
12:55 PM 53.6 °F - 28.4 °F 38% 30.34 in 10.0 mi East 9.2 mph - N/A   Clear
1:15 PM 53.6 °F - 26.6 °F 35% 30.33 in 10.0 mi ENE 9.2 mph - N/A   Clear
1:35 PM 53.6 °F - 26.6 °F 35% 30.32 in 10.0 mi NE 5.8 mph - N/A   Clear
1:55 PM 53.6 °F - 24.8 °F 33% 30.32 in 10.0 mi ENE 9.2 mph - N/A   Clear
2:15 PM 53.6 °F - 26.6 °F 35% 30.31 in 10.0 mi East 8.1 mph - N/A   Clear
2:35 PM 55.4 °F - 26.6 °F 33% 30.31 in 10.0 mi ENE 6.9 mph - N/A   Clear
2:55 PM 55.4 °F - 28.4 °F 36% 30.31 in 10.0 mi ENE 8.1 mph - N/A   Clear
3:15 PM 55.4 °F - 26.6 °F 33% 30.32 in 10.0 mi East 8.1 mph - N/A   Clear
3:55 PM 53.6 °F - 26.6 °F 35% 30.33 in 10.0 mi East 4.6 mph - N/A   Clear
4:15 PM 53.6 °F - 28.4 °F 38% 30.34 in 10.0 mi East 3.5 mph - N/A   Clear
4:35 PM 53.6 °F - 32.0 °F 44% 30.34 in 10.0 mi East 4.6 mph - N/A   Clear
4:55 PM 53.6 °F - 32.0 °F 44% 30.34 in 10.0 mi East 3.5 mph - N/A   Clear
5:15 PM 51.8 °F - 32.0 °F 47% 30.35 in 10.0 mi East 3.5 mph - N/A   Clear
5:35 PM 50.0 °F - 32.0 °F 50% 30.35 in 10.0 mi Calm Calm - N/A   Clear
6:15 PM 44.6 °F 43.1 °F 33.8 °F 66% 30.36 in 10.0 mi East 3.5 mph - N/A   Clear
6:35 PM 42.8 °F 40.1 °F 33.8 °F 70% 30.36 in 10.0 mi East 4.6 mph - N/A   Clear
6:55 PM 42.8 °F 41.1 °F 35.6 °F 76% 30.36 in 10.0 mi East 3.5 mph - N/A   Clear
7:15 PM 41.0 °F 38.0 °F 33.8 °F 76% 30.36 in 10.0 mi East 4.6 mph - N/A   Clear
7:35 PM 41.0 °F 38.0 °F 33.8 °F 76% 30.35 in 10.0 mi East 4.6 mph - N/A   Clear
7:55 PM 42.8 °F 39.3 °F 32.0 °F 66% 30.36 in 10.0 mi East 5.8 mph - N/A   Clear
8:15 PM 41.0 °F 37.1 °F 32.0 °F 70% 30.36 in 10.0 mi East 5.8 mph - N/A   Clear
8:35 PM 41.0 °F 38.0 °F 32.0 °F 70% 30.36 in 10.0 mi ENE 4.6 mph - N/A   Clear
8:55 PM 41.0 °F 39.0 °F 32.0 °F 70% 30.36 in 10.0 mi East 3.5 mph - N/A   Clear
9:15 PM 41.0 °F 39.0 °F 32.0 °F 70% 30.37 in 10.0 mi East 3.5 mph - N/A   Clear
9:35 PM 41.0 °F 37.1 °F 32.0 °F 70% 30.37 in 10.0 mi ENE 5.8 mph - N/A   Clear
9:55 PM 39.2 °F 37.0 °F 32.0 °F 75% 30.36 in 10.0 mi East 3.5 mph - N/A   Clear
10:15 PM 37.4 °F - 32.0 °F 81% 30.38 in 10.0 mi Calm Calm - N/A   Clear
10:35 PM 37.4 °F 34.9 °F 32.0 °F 81% 30.38 in 10.0 mi East 3.5 mph - N/A   Clear
10:55 PM 35.6 °F 32.8 °F 32.0 °F 87% 30.38 in 10.0 mi East 3.5 mph - N/A   Clear
11:15 PM 35.6 °F 31.7 °F 33.8 °F 93% 30.37 in 10.0 mi East 4.6 mph - N/A   Clear
11:35 PM 37.4 °F 33.8 °F 32.0 °F 81% 30.37 in 10.0 mi East 4.6 mph - N/A   Clear
11:55 PM 37.4 °F 33.8 °F 32.0 °F 81% 30.37 in 10.0 mi East 4.6 mph - N/A   Clear